Tracking 20383 objects as of 24-Feb-2020
HD Live streaming from Space Station
objects crossing your sky now
Track the group of recently launched Starlink satellites

SL-14 DEB

Track SL-14 DEB now!
10-day predictions


NORAD ID: 19136
Int'l Code: 1978-100J
Perigee: 982.0 km
Apogee: 1,626.9 km
Inclination: 82.4 °
Period: 111.5 minutes
Semi major axis: 7675 km
RCS: 0.0158 m2 (small)
Launch date: October 26, 1978
Source: Commonwealth of Independent States (former USSR) (CIS)
Launch site: PLESETSK MISSILE AND SPACE COMPLEX (PKMTR)

Note: This is SATELLITE DEBRIS
aabbcc
Your satellite tracking list
Your tracking list is empty




NASA's NSSDC Master Catalog

Two Line Element Set (TLE):
1 19136U 78100J   20054.71702792 +.00001357 +00000-0 +34308-2 0  9998
2 19136 082.4225 323.3499 0420100 220.9412 165.0349 12.91073208910589
Source of the keplerian elements: AFSPC